,,Stat6,,Stat2,,Stat8,,Stat9,,Stat10,,Wind1,,Wind1,
time,status,PA1M_AVG,status,PR1M_SUM,status,RH1M_AVG,status,SR1M_AVG,status,TA1M_AVG,status,W1dAve1m,status,W1sAve1m,
2008-04-08, 00:00:00,VALID,917.36,VALID,0,VALID,100,VALID,-0.0679233,VALID,20.5697,VALID,15,VALID,0,
2008-04-08, 00:01:00,VALID,917.306,VALID,0,VALID,100,VALID,0,VALID,20.5562,VALID,15,VALID,0,
2008-04-08, 00:02:00,VALID,917.262,VALID,0,VALID,100,VALID,-0.0169808,VALID,20.5725,VALID,15,VALID,0,
2008-04-08, 00:03:00,VALID,917.232,VALID,0,VALID,100,VALID,-0.0169808,VALID,20.5884,VALID,15,VALID,0,
2008-04-08, 00:04:00,VALID,917.199,VALID,0,VALID,100,VALID,-0.0169808,VALID,20.5884,VALID,16,VALID,0,
2008-04-08, 00:05:00,VALID,917.19,VALID,0,VALID,100,VALID,0.0169808,VALID,20.5722,VALID,24,VALID,0,
2008-04-08, 00:06:00,VALID,917.202,VALID,0,VALID,100,VALID,0,VALID,20.5692,VALID,26,VALID,0,
2008-04-08, 00:07:00,VALID,917.213,VALID,0,VALID,100,VALID,0.0169808,VALID,20.5495,VALID,26,VALID,0,
2008-04-08, 00:08:00,VALID,917.218,VALID,0,VALID,100,VALID,0,VALID,20.5595,VALID,34,VALID,0,
2008-04-08, 00:09:00,VALID,917.242,VALID,0,VALID,100,VALID,0,VALID,20.5433,VALID,35,VALID,0,
2008-04-08, 00:10:00,VALID,917.259,VALID,0,VALID,100,VALID,0,VALID,20.5205,VALID,35,VALID,0,
2008-04-08, 00:11:00,VALID,917.26,VALID,0,VALID,100,VALID,0,VALID,20.54,VALID,35,VALID,0.0976563,
2008-04-08, 00:12:00,VALID,917.279,VALID,0,VALID,100,VALID,0,VALID,20.53,VALID,35,VALID,0.133575,
2008-04-08, 00:13:00,VALID,917.294,VALID,0,VALID,100,VALID,0,VALID,20.5076,VALID,34,VALID,0,
2008-04-08, 00:14:00,VALID,917.318,VALID,0,VALID,100,VALID,0,VALID,20.5078,VALID,29,VALID,0,
2008-04-08, 00:15:00,VALID,917.347,VALID,0,VALID,100,VALID,-0.0169808,VALID,20.5141,VALID,29,VALID,0,
2008-04-08, 00:16:00,VALID,917.39,VALID,0,VALID,100,VALID,-0.0339617,VALID,20.524,VALID,22,VALID,0.353198,
2008-04-08, 00:17:00,VALID,917.422,VALID,0,VALID,100,VALID,0,VALID,20.5105,VALID,10,VALID,0.738814,
2008-04-08, 00:18:00,VALID,917.449,VALID,0,VALID,100,VALID,0,VALID,20.4946,VALID,16,VALID,0.921094,
2008-04-08, 00:19:00,VALID,917.472,VALID,0,VALID,100,VALID,0,VALID,20.517,VALID,14,VALID,0.824219,
2008-04-08, 00:20:00,VALID,917.479,VALID,0,VALID,100,VALID,0,VALID,20.5041,VALID,17,VALID,0.986919,
2008-04-08, 00:21:00,VALID,917.469,VALID,0,VALID,100,VALID,-0.0169808,VALID,20.5008,VALID,14,VALID,0.970881,
2008-04-08, 00:22:00,VALID,917.46,VALID,0,VALID,100,VALID,-0.0169808,VALID,20.4816,VALID,15,VALID,0.862749,
2008-04-08, 00:23:00,VALID,917.431,VALID,0,VALID,100,VALID,-0.0169808,VALID,20.4786,VALID,15,VALID,0.663491,
2008-04-08, 00:24:00,VALID,917.408,VALID,0,VALID,100,VALID,0,VALID,20.4848,VALID,15,VALID,0.311357,
2008-04-08, 00:25:00,VALID,917.384,VALID,0,VALID,100,VALID,-0.0339617,VALID,20.4978,VALID,2,VALID,0,
2008-04-08, 00:26:00,VALID,917.357,VALID,0,VALID,100,VALID,-0.0169808,VALID,20.4748,VALID,331,VALID,0,
2008-04-08, 00:27:00,VALID,917.346,VALID,0,VALID,100,VALID,0,VALID,20.4586,VALID,357,VALID,0,
2008-04-08, 00:28:00,VALID,917.319,VALID,0,VALID,100,VALID,-0.0169808,VALID,20.4816,VALID,6,VALID,0,
2008-04-08, 00:29:00,VALID,917.319,VALID,0,VALID,100,VALID,0,VALID,20.4943,VALID,6,VALID,0,
2008-04-08, 00:30:00,VALID,917.306,VALID,0,VALID,100,VALID,-0.0169808,VALID,20.5365,VALID,6,VALID,0,
2008-04-08, 00:31:00,VALID,917.286,VALID,0,VALID,100,VALID,-0.0339617,VALID,20.566,VALID,6,VALID,0,
2008-04-08, 00:32:00,VALID,917.281,VALID,0,VALID,100,VALID,-0.0169808,VALID,20.5919,VALID,6,VALID,0,
2008-04-08, 00:33:00,VALID,917.262,VALID,0,VALID,100,VALID,-0.0169808,VALID,20.6079,VALID,6,VALID,0,
2008-04-08, 00:34:00,VALID,917.247,VALID,0,VALID,100,VALID,-0.0509425,VALID,20.6147,VALID,6,VALID,0,
2008-04-08, 00:35:00,VALID,917.238,VALID,0,VALID,100,VALID,-0.0339617,VALID,20.6214,VALID,6,VALID,0,
2008-04-08, 00:36:00,VALID,917.225,VALID,0,VALID,100,VALID,-0.0169808,VALID,20.6574,VALID,8,VALID,0,
2008-04-08, 00:37:00,VALID,917.216,VALID,0,VALID,100,VALID,-0.0169808,VALID,20.6798,VALID,8,VALID,0,
2008-04-08, 00:38:00,VALID,917.189,VALID,0,VALID,100,VALID,-0.0169808,VALID,20.6571,VALID,8,VALID,0,
2008-04-08, 00:39:00,VALID,917.177,VALID,0,VALID,100,VALID,0,VALID,20.6533,VALID,8,VALID,0,
2008-04-08, 00:40:00,VALID,917.176,VALID,0,VALID,100,VALID,0,VALID,20.6539,VALID,8,VALID,0,
2008-04-08, 00:41:00,VALID,917.181,VALID,0,VALID,100,VALID,-0.0169808,VALID,20.6474,VALID,9,VALID,0,
2008-04-08, 00:42:00,VALID,917.171,VALID,0,VALID,100,VALID,0,VALID,20.6436,VALID,9,VALID,0,
2008-04-08, 00:43:00,VALID,917.188,VALID,0,VALID,100,VALID,-0.0339617,VALID,20.6144,VALID,7,VALID,0,
2008-04-08, 00:44:00,VALID,917.196,VALID,0,VALID,100,VALID,0,VALID,20.5922,VALID,314,VALID,0,
2008-04-08, 00:45:00,VALID,917.187,VALID,0,VALID,100,VALID,0,VALID,20.5592,VALID,314,VALID,0,
2008-04-08, 00:46:00,VALID,917.212,VALID,0,VALID,100,VALID,0,VALID,20.5757,VALID,314,VALID,0,
2008-04-08, 00:47:00,VALID,917.228,VALID,0,VALID,100,VALID,-0.0169808,VALID,20.5822,VALID,314,VALID,0,
2008-04-08, 00:48:00,VALID,917.233,VALID,0,VALID,100,VALID,-0.0339617,VALID,20.6022,VALID,314,VALID,0,
2008-04-08, 00:49:00,VALID,917.234,VALID,0,VALID,100,VALID,-0.0169808,VALID,20.5665,VALID,341,VALID,0,
2008-04-08, 00:50:00,VALID,917.22,VALID,0,VALID,100,VALID,-0.0849042,VALID,20.5635,VALID,8,VALID,0,
2008-04-08, 00:51:00,VALID,917.221,VALID,0,VALID,100,VALID,-0.135847,VALID,20.5575,VALID,23,VALID,0.615589,
2008-04-08, 00:52:00,VALID,917.202,VALID,0,VALID,100,VALID,-0.135847,VALID,20.577,VALID,35,VALID,0.290923,
2008-04-08, 00:53:00,VALID,917.174,VALID,0,VALID,100,VALID,-0.118866,VALID,20.5575,VALID,31,VALID,0.025436,
2008-04-08, 00:54:00,VALID,917.159,VALID,0,VALID,100,VALID,-0.101885,VALID,20.5483,VALID,29,VALID,0.000347222,
2008-04-08, 00:55:00,VALID,917.121,VALID,0,VALID,100,VALID,-0.169808,VALID,20.5713,VALID,28,VALID,0.415625,
2008-04-08, 00:56:00,VALID,917.101,VALID,0,VALID,100,VALID,-0.0849042,VALID,20.5705,VALID,30,VALID,0.442649,
2008-04-08, 00:57:00,VALID,917.065,VALID,0,VALID,100,VALID,-0.152827,VALID,20.5773,VALID,38,VALID,0.662024,
2008-04-08, 00:58:00,VALID,917.043,VALID,0,VALID,100,VALID,-0.118866,VALID,20.5743,VALID,33,VALID,0.203683,
2008-04-08, 00:59:00,VALID,917.01,VALID,0,VALID,100,VALID,-0.135847,VALID,20.5551,VALID,59,VALID,0.49256,
2008-04-08, 01:00:00,VALID,916.991,VALID,0,VALID,100,VALID,-0.135847,VALID,20.5229,VALID,60,VALID,0.405869,
2008-04-08, 01:01:00,VALID,916.968,VALID,0,VALID,100,VALID,-0.152827,VALID,20.4964,VALID,64,VALID,0.116824,
2008-04-08, 01:02:00,VALID,916.948,VALID,0,VALID,100,VALID,-0.118866,VALID,20.4669,VALID,83,VALID,0.436756,
2008-04-08, 01:03:00,VALID,916.927,VALID,0,VALID,100,VALID,-0.101885,VALID,20.4607,VALID,103,VALID,0.528773,
2008-04-08, 01:04:00,VALID,916.905,VALID,0,VALID,100,VALID,-0.118866,VALID,20.4439,VALID,111,VALID,0.514695,
2008-04-08, 01:05:00,VALID,916.87,VALID,0,VALID,100,VALID,-0.0339617,VALID,20.4329,VALID,118,VALID,0.606399,
2008-04-08, 01:06:00,VALID,916.844,VALID,0,VALID,100,VALID,-0.0169808,VALID,20.4197,VALID,108,VALID,0.115282,
2008-04-08, 01:07:00,VALID,916.8,VALID,0,VALID,100,VALID,0,VALID,20.397,VALID,108,VALID,0.910567,
2008-04-08, 01:08:00,VALID,916.757,VALID,0,VALID,100,VALID,-0.0169808,VALID,20.371,VALID,108,VALID,0.951308,
2008-04-08, 01:09:00,VALID,916.715,VALID,0,VALID,100,VALID,-0.0849042,VALID,20.358,VALID,107,VALID,1.00321,
2008-04-08, 01:10:00,VALID,916.679,VALID,0,VALID,100,VALID,-0.0169808,VALID,20.3485,VALID,101,VALID,0.875,
2008-04-08, 01:11:00,VALID,916.661,VALID,0,VALID,100,VALID,-0.0849042,VALID,20.3258,VALID,88,VALID,0.954268,
2008-04-08, 01:12:00,VALID,916.628,VALID,0,VALID,100,VALID,-0.0679233,VALID,20.3064,VALID,101,VALID,1.08646,
2008-04-08, 01:13:00,VALID,916.614,VALID,0,VALID,100,VALID,-0.0169808,VALID,20.3064,VALID,88,VALID,1.06161,
2008-04-08, 01:14:00,VALID,916.597,VALID,0,VALID,100,VALID,-0.0509425,VALID,20.2999,VALID,104,VALID,0.977653,
2008-04-08, 01:15:00,VALID,916.585,VALID,0,VALID,100,VALID,-0.0339617,VALID,20.2839,VALID,106,VALID,1.109,
2008-04-08, 01:16:00,VALID,916.566,VALID,0.2,VALID,100,VALID,-0.0169808,VALID,20.2704,VALID,107,VALID,0.712003,
2008-04-08, 01:17:00,VALID,916.54,VALID,0,VALID,100,VALID,-0.0509425,VALID,20.2806,VALID,108,VALID,0.952567,
2008-04-08, 01:18:00,VALID,916.505,VALID,0,VALID,100,VALID,-0.0509425,VALID,20.2709,VALID,128,VALID,0.464453,
2008-04-08, 01:19:00,VALID,916.472,VALID,0,VALID,100,VALID,-0.0339617,VALID,20.2509,VALID,144,VALID,0.958854,
2008-04-08, 01:20:00,VALID,916.417,VALID,0,VALID,100,VALID,-0.0339617,VALID,20.2736,VALID,164,VALID,0.864769,
2008-04-08, 01:21:00,VALID,916.371,VALID,0,VALID,100,VALID,-0.0169808,VALID,20.2704,VALID,166,VALID,0.77934,
2008-04-08, 01:22:00,VALID,916.328,VALID,0,VALID,100,VALID,-0.0339617,VALID,20.2809,VALID,153,VALID,0.558036,
2008-04-08, 01:23:00,VALID,916.286,VALID,0,VALID,100,VALID,-0.0509425,VALID,20.2674,VALID,153,VALID,0.447218,
2008-04-08, 01:24:00,VALID,916.24,VALID,0,VALID,100,VALID,-0.0339617,VALID,20.2674,VALID,152,VALID,0.003125,
2008-04-08, 01:25:00,VALID,916.195,VALID,0,VALID,100,VALID,-0.0679233,VALID,20.2672,VALID,158,VALID,0.102778,
2008-04-08, 01:26:00,VALID,916.158,VALID,0,VALID,100,VALID,-0.0339617,VALID,20.2836,VALID,169,VALID,0.66887,
2008-04-08, 01:27:00,VALID,916.119,VALID,0,VALID,100,VALID,-0.101885,VALID,20.2874,VALID,184,VALID,0.436821,
2008-04-08, 01:28:00,VALID,916.11,VALID,0,VALID,100,VALID,-0.0509425,VALID,20.2901,VALID,161,VALID,0.565662,
2008-04-08, 01:29:00,VALID,916.101,VALID,0,VALID,100,VALID,-0.0509425,VALID,20.2966,VALID,170,VALID,0,
2008-04-08, 01:30:00,VALID,916.112,VALID,0.2,VALID,100,VALID,-0.0169808,VALID,20.3028,VALID,156,VALID,0.202172,
2008-04-08, 01:31:00,VALID,916.118,VALID,0,VALID,100,VALID,-0.0169808,VALID,20.3158,VALID,143,VALID,0.00381541,
2008-04-08, 01:32:00,VALID,916.143,VALID,0,VALID,100,VALID,-0.0169808,VALID,20.2961,VALID,107,VALID,0.696948,
2008-04-08, 01:33:00,VALID,916.148,VALID,0,VALID,100,VALID,-0.0509425,VALID,20.2769,VALID,101,VALID,0.994004,
2008-04-08, 01:34:00,VALID,916.149,VALID,0,VALID,100,VALID,-0.0339617,VALID,20.2642,VALID,109,VALID,1.10227,
2008-04-08, 01:35:00,VALID,916.145,VALID,0,VALID,100,VALID,-0.0169808,VALID,20.2312,VALID,93,VALID,0.97202,
2008-04-08, 01:36:00,VALID,916.118,VALID,0,VALID,100,VALID,-0.0169808,VALID,20.2477,VALID,79,VALID,0.994234,
2008-04-08, 01:37:00,VALID,916.11,VALID,0,VALID,100,VALID,-0.0679233,VALID,20.209,VALID,72,VALID,0.901736,
2008-04-08, 01:38:00,VALID,916.069,VALID,0,VALID,100,VALID,-0.0679233,VALID,20.2055,VALID,103,VALID,1.22891,
2008-04-08, 01:39:00,VALID,916.026,VALID,0.2,VALID,100,VALID,-0.0339617,VALID,20.1798,VALID,87,VALID,1.16704,
2008-04-08, 01:40:00,VALID,916.002,VALID,0,VALID,100,VALID,-0.0339617,VALID,20.1795,VALID,105,VALID,0.82066,
2008-04-08, 01:41:00,VALID,915.974,VALID,0,VALID,100,VALID,-0.0339617,VALID,20.1763,VALID,118,VALID,0.469792,
2008-04-08, 01:42:00,VALID,915.947,VALID,0,VALID,100,VALID,-0.0509425,VALID,20.1736,VALID,133,VALID,0.0588796,
2008-04-08, 01:43:00,VALID,915.931,VALID,0.2,VALID,100,VALID,-0.0509425,VALID,20.1733,VALID,143,VALID,0.10434,
2008-04-08, 01:44:00,VALID,915.912,VALID,0,VALID,100,VALID,-0.0509425,VALID,20.1666,VALID,138,VALID,0,
2008-04-08, 01:45:00,VALID,915.883,VALID,0,VALID,100,VALID,-0.0849042,VALID,20.1701,VALID,135,VALID,0,
2008-04-08, 01:46:00,VALID,915.865,VALID,0,VALID,100,VALID,-0.0169808,VALID,20.1633,VALID,153,VALID,0.846181,
2008-04-08, 01:47:00,VALID,915.841,VALID,0.2,VALID,100,VALID,-0.0679233,VALID,20.1668,VALID,154,VALID,0.828526,
2008-04-08, 01:48:00,VALID,915.826,VALID,0,VALID,100,VALID,-0.0339617,VALID,20.1666,VALID,150,VALID,0.919457,
2008-04-08, 01:49:00,VALID,915.81,VALID,0,VALID,100,VALID,-0.0169808,VALID,20.1666,VALID,159,VALID,1.32984,
2008-04-08, 01:50:00,VALID,915.796,VALID,0.2,VALID,100,VALID,-0.0849042,VALID,20.1678,VALID,145,VALID,1.13837,
2008-04-08, 01:51:00,VALID,915.777,VALID,0,VALID,100,VALID,-0.101885,VALID,20.1676,VALID,148,VALID,0.917783,
2008-04-08, 01:52:00,VALID,915.753,VALID,0,VALID,100,VALID,-0.0679233,VALID,20.1711,VALID,145,VALID,1.22802,
2008-04-08, 01:53:00,VALID,915.726,VALID,0,VALID,100,VALID,-0.101885,VALID,20.1643,VALID,148,VALID,1.12282,
2008-04-08, 01:54:00,VALID,915.673,VALID,0,VALID,100,VALID,-0.101885,VALID,20.1514,VALID,149,VALID,1.07906,
2008-04-08, 01:55:00,VALID,915.641,VALID,0.2,VALID,100,VALID,-0.0849042,VALID,20.1446,VALID,156,VALID,0.661519,
2008-04-08, 01:56:00,VALID,915.614,VALID,0,VALID,100,VALID,-0.0849042,VALID,20.1479,VALID,142,VALID,0.876302,
2008-04-08, 01:57:00,VALID,915.59,VALID,0,VALID,100,VALID,-0.101885,VALID,20.1346,VALID,139,VALID,1.46675,
2008-04-08, 01:58:00,VALID,915.569,VALID,0,VALID,100,VALID,-0.0849042,VALID,20.1319,VALID,152,VALID,1.08114,
2008-04-08, 01:59:00,VALID,915.527,VALID,0.2,VALID,100,VALID,-0.0849042,VALID,20.1316,VALID,156,VALID,1.54545,
2008-04-08, 02:00:00,VALID,915.5,VALID,0,VALID,100,VALID,-0.101885,VALID,20.1256,VALID,157,VALID,1.52852,
2008-04-08, 02:01:00,VALID,915.457,VALID,0,VALID,100,VALID,-0.101885,VALID,20.1291,VALID,164,VALID,1.69132,
2008-04-08, 02:02:00,VALID,915.441,VALID,0,VALID,100,VALID,-0.101885,VALID,20.1319,VALID,160,VALID,1.37064,
2008-04-08, 02:03:00,VALID,915.412,VALID,0,VALID,100,VALID,-0.101885,VALID,20.1221,VALID,155,VALID,0.790128,
2008-04-08, 02:04:00,VALID,915.414,VALID,0.2,VALID,100,VALID,-0.0849042,VALID,20.1354,VALID,159,VALID,1.07066,
2008-04-08, 02:05:00,VALID,915.398,VALID,0,VALID,100,VALID,-0.0169808,VALID,20.1244,VALID,158,VALID,1.42768,
2008-04-08, 02:06:00,VALID,915.397,VALID,0,VALID,100,VALID,0.0509425,VALID,20.1006,VALID,151,VALID,1.54592,
2008-04-08, 02:07:00,VALID,915.385,VALID,0.2,VALID,100,VALID,0.0509425,VALID,20.0936,VALID,167,VALID,1.05522,
2008-04-08, 02:08:00,VALID,915.354,VALID,0,VALID,100,VALID,0.0679233,VALID,20.0874,VALID,144,VALID,1.20084,
2008-04-08, 02:09:00,VALID,915.329,VALID,0.2,VALID,100,VALID,0.0339617,VALID,20.0649,VALID,146,VALID,1.61265,
2008-04-08, 02:10:00,VALID,915.295,VALID,0,VALID,100,VALID,0.0169808,VALID,20.0525,VALID,147,VALID,1.67262,
2008-04-08, 02:11:00,VALID,915.279,VALID,0.2,VALID,100,VALID,0.0169808,VALID,20.0562,VALID,147,VALID,1.28242,
2008-04-08, 02:12:00,VALID,915.248,VALID,0,VALID,100,VALID,0,VALID,20.0622,VALID,154,VALID,1.28223,
2008-04-08, 02:13:00,VALID,915.226,VALID,0.2,VALID,100,VALID,0,VALID,20.0462,VALID,143,VALID,1.71735,
2008-04-08, 02:14:00,VALID,915.187,VALID,0,VALID,100,VALID,0,VALID,20.0258,VALID,143,VALID,1.85921,
2008-04-08, 02:15:00,VALID,915.16,VALID,0,VALID,100,VALID,0.0339617,VALID,20.0365,VALID,140,VALID,1.68484,
2008-04-08, 02:16:00,VALID,915.106,VALID,0.2,VALID,100,VALID,0,VALID,20.0395,VALID,148,VALID,1.70635,
2008-04-08, 02:17:00,VALID,915.083,VALID,0,VALID,100,VALID,0,VALID,20.0397,VALID,166,VALID,1.9894,
2008-04-08, 02:18:00,VALID,915.049,VALID,0,VALID,100,VALID,0,VALID,20.0198,VALID,131,VALID,1.97311,
2008-04-08, 02:19:00,VALID,915.011,VALID,0.2,VALID,100,VALID,0.0169808,VALID,20.0265,VALID,148,VALID,1.29887,
2008-04-08, 02:20:00,VALID,914.99,VALID,0,VALID,100,VALID,-0.0679233,VALID,20.0215,VALID,130,VALID,1.76635,
2008-04-08, 02:21:00,VALID,914.949,VALID,0,VALID,100,VALID,-0.0679233,VALID,20.0221,VALID,140,VALID,1.97917,
2008-04-08, 02:22:00,VALID,914.908,VALID,0,VALID,100,VALID,-0.0849042,VALID,20.0116,VALID,147,VALID,1.51669,
2008-04-08, 02:23:00,VALID,914.886,VALID,0.2,VALID,100,VALID,-0.118866,VALID,20.0088,VALID,147,VALID,1.78961,
2008-04-08, 02:24:00,VALID,914.864,VALID,0,VALID,100,VALID,-0.101885,VALID,19.9893,VALID,142,VALID,1.91744,
2008-04-08, 02:25:00,VALID,914.851,VALID,0,VALID,100,VALID,-0.101885,VALID,19.9794,VALID,143,VALID,1.72496,
2008-04-08, 02:26:00,VALID,914.82,VALID,0,VALID,100,VALID,-0.101885,VALID,19.9861,VALID,153,VALID,1.33203,
2008-04-08, 02:27:00,VALID,914.8,VALID,0,VALID,100,VALID,-0.101885,VALID,19.9958,VALID,166,VALID,1.60175,
2008-04-08, 02:28:00,VALID,914.788,VALID,0.2,VALID,100,VALID,-0.0849042,VALID,19.9893,VALID,149,VALID,1.31111,
2008-04-08, 02:29:00,VALID,914.787,VALID,0,VALID,100,VALID,-0.118866,VALID,19.9731,VALID,133,VALID,1.34956,
2008-04-08, 02:30:00,VALID,914.775,VALID,0,VALID,100,VALID,-0.101885,VALID,19.9634,VALID,129,VALID,1.68945,
2008-04-08, 02:31:00,VALID,914.774,VALID,0,VALID,100,VALID,-0.0849042,VALID,19.9571,VALID,134,VALID,1.53867,
2008-04-08, 02:32:00,VALID,914.753,VALID,0,VALID,100,VALID,-0.118866,VALID,19.9634,VALID,144,VALID,1.13765,
2008-04-08, 02:33:00,VALID,914.74,VALID,0,VALID,100,VALID,-0.0849042,VALID,19.9664,VALID,120,VALID,1.47088,
2008-04-08, 02:34:00,VALID,914.73,VALID,0.2,VALID,100,VALID,-0.0679233,VALID,19.9561,VALID,135,VALID,1.74143,
2008-04-08, 02:35:00,VALID,914.717,VALID,0,VALID,100,VALID,-0.101885,VALID,19.9604,VALID,141,VALID,1.3691,
2008-04-08, 02:36:00,VALID,914.698,VALID,0,VALID,100,VALID,-0.101885,VALID,19.9701,VALID,132,VALID,1.26793,
2008-04-08, 02:37:00,VALID,914.664,VALID,0,VALID,100,VALID,-0.101885,VALID,19.9734,VALID,146,VALID,1.65298,
2008-04-08, 02:38:00,VALID,914.634,VALID,0,VALID,100,VALID,-0.101885,VALID,19.9699,VALID,144,VALID,1.51581,
2008-04-08, 02:39:00,VALID,914.619,VALID,0,VALID,100,VALID,-0.118866,VALID,19.9761,VALID,161,VALID,1.41778,
2008-04-08, 02:40:00,VALID,914.594,VALID,0,VALID,100,VALID,-0.101885,VALID,19.9826,VALID,160,VALID,1.62344,
2008-04-08, 02:41:00,VALID,914.564,VALID,0,VALID,100,VALID,-0.101885,VALID,19.9993,VALID,153,VALID,1.80692,
2008-04-08, 02:42:00,VALID,914.54,VALID,0,VALID,100,VALID,-0.101885,VALID,20.0123,VALID,156,VALID,1.60312,
2008-04-08, 02:43:00,VALID,914.513,VALID,0,VALID,100,VALID,-0.101885,VALID,20.0156,VALID,159,VALID,1.7606,
2008-04-08, 02:44:00,VALID,914.5,VALID,0,VALID,100,VALID,-0.0849042,VALID,20.0156,VALID,150,VALID,1.50305,
2008-04-08, 02:45:00,VALID,914.492,VALID,0,VALID,100,VALID,-0.118866,VALID,20.0221,VALID,147,VALID,1.6369,
2008-04-08, 02:46:00,VALID,914.466,VALID,0.2,VALID,100,VALID,-0.135847,VALID,20.0253,VALID,146,VALID,1.40461,
2008-04-08, 02:47:00,VALID,914.445,VALID,0,VALID,100,VALID,-0.101885,VALID,20.025,VALID,161,VALID,1.29222,
2008-04-08, 02:48:00,VALID,914.425,VALID,0,VALID,100,VALID,-0.101885,VALID,20.0318,VALID,150,VALID,1.73074,
2008-04-08, 02:49:00,VALID,914.42,VALID,0,VALID,100,VALID,-0.101885,VALID,20.035,VALID,153,VALID,1.58249,
2008-04-08, 02:50:00,VALID,914.394,VALID,0,VALID,100,VALID,-0.0169808,VALID,20.0268,VALID,161,VALID,1.32701,
2008-04-08, 02:51:00,VALID,914.377,VALID,0,VALID,100,VALID,0,VALID,20.0195,VALID,146,VALID,1.4907,
2008-04-08, 02:52:00,VALID,914.365,VALID,0,VALID,100,VALID,0.0169808,VALID,20.0098,VALID,147,VALID,1.84219,
2008-04-08, 02:53:00,VALID,914.341,VALID,0,VALID,100,VALID,0.0169808,VALID,20.0235,VALID,150,VALID,1.19159,
2008-04-08, 02:54:00,VALID,914.308,VALID,0,VALID,100,VALID,0.0339617,VALID,20.003,VALID,152,VALID,1.68694,
2008-04-08, 02:55:00,VALID,914.285,VALID,0,VALID,100,VALID,0.0339617,VALID,19.9906,VALID,137,VALID,1.17914,
2008-04-08, 02:56:00,VALID,914.251,VALID,0,VALID,100,VALID,0,VALID,19.9714,VALID,139,VALID,1.4881,
2008-04-08, 02:57:00,VALID,914.208,VALID,0,VALID,100,VALID,0,VALID,19.9581,VALID,128,VALID,1.40252,
2008-04-08, 02:58:00,VALID,914.186,VALID,0,VALID,100,VALID,0,VALID,19.9319,VALID,138,VALID,1.54144,
2008-04-08, 02:59:00,VALID,914.166,VALID,0,VALID,100,VALID,0,VALID,19.9424,VALID,145,VALID,1.56707,
2008-04-08, 03:00:00,VALID,914.158,VALID,0,VALID,100,VALID,0,VALID,19.9357,VALID,144,VALID,1.30413,
2008-04-08, 03:01:00,VALID,914.125,VALID,0,VALID,100,VALID,0,VALID,19.9227,VALID,144,VALID,2.07177,
2008-04-08, 03:02:00,VALID,914.101,VALID,0,VALID,100,VALID,-0.0339617,VALID,19.9294,VALID,148,VALID,1.6306,
2008-04-08, 03:03:00,VALID,914.082,VALID,0,VALID,100,VALID,0,VALID,19.9324,VALID,138,VALID,2.07885,
2008-04-08, 03:04:00,VALID,914.068,VALID,0,VALID,100,VALID,0.0509425,VALID,19.9419,VALID,142,VALID,1.69975,
2008-04-08, 03:05:00,VALID,914.05,VALID,0,VALID,100,VALID,-0.0679233,VALID,19.9299,VALID,138,VALID,1.82292,
2008-04-08, 03:06:00,VALID,914.056,VALID,0,VALID,100,VALID,-0.0679233,VALID,19.9372,VALID,125,VALID,1.70969,
2008-04-08, 03:07:00,VALID,914.061,VALID,0,VALID,100,VALID,-0.101885,VALID,19.9439,VALID,116,VALID,1.58817,
2008-04-08, 03:08:00,VALID,914.068,VALID,0,VALID,100,VALID,-0.118866,VALID,19.9339,VALID,116,VALID,1.72656,
2008-04-08, 03:09:00,VALID,914.076,VALID,0,VALID,100,VALID,-0.0849042,VALID,19.9409,VALID,111,VALID,2.09464,
2008-04-08, 03:10:00,VALID,914.08,VALID,0,VALID,100,VALID,-0.118866,VALID,19.9309,VALID,104,VALID,2.26339,
2008-04-08, 03:11:00,VALID,914.084,VALID,0,VALID,100,VALID,-0.135847,VALID,19.9277,VALID,102,VALID,2.05178,
2008-04-08, 03:12:00,VALID,914.078,VALID,0,VALID,100,VALID,-0.0849042,VALID,19.8845,VALID,95,VALID,1.79403,
2008-04-08, 03:13:00,VALID,914.093,VALID,0,VALID,100,VALID,-0.0849042,VALID,19.882,VALID,77,VALID,1.7049,
2008-04-08, 03:14:00,VALID,914.102,VALID,0,VALID,100,VALID,-0.0849042,VALID,19.8493,VALID,102,VALID,1.94665,
2008-04-08, 03:15:00,VALID,914.112,VALID,0,VALID,100,VALID,-0.101885,VALID,19.8139,VALID,89,VALID,1.75725,
2008-04-08, 03:16:00,VALID,914.133,VALID,0,VALID,100,VALID,-0.0679233,VALID,19.8069,VALID,99,VALID,1.1568,
2008-04-08, 03:17:00,VALID,914.146,VALID,0,VALID,100,VALID,-0.118866,VALID,19.7914,VALID,115,VALID,1.6369,
2008-04-08, 03:18:00,VALID,914.146,VALID,0,VALID,100,VALID,-0.101885,VALID,19.7587,VALID,118,VALID,2.12409,
2008-04-08, 03:19:00,VALID,914.153,VALID,0,VALID,100,VALID,-0.101885,VALID,19.756,VALID,106,VALID,1.3125,
2008-04-08, 03:20:00,VALID,914.145,VALID,0,VALID,100,VALID,-0.0169808,VALID,19.7218,VALID,91,VALID,1.66969,
2008-04-08, 03:21:00,VALID,914.151,VALID,0,VALID,100,VALID,0,VALID,19.6958,VALID,83,VALID,1.71646,
2008-04-08, 03:22:00,VALID,914.148,VALID,0,VALID,100,VALID,0.0169808,VALID,19.6728,VALID,69,VALID,2.32533,
2008-04-08, 03:23:00,VALID,914.156,VALID,0,VALID,100,VALID,0,VALID,19.6983,VALID,86,VALID,1.85316,
2008-04-08, 03:24:00,VALID,914.158,VALID,0,VALID,100,VALID,0.0169808,VALID,19.7115,VALID,70,VALID,1.32304,
2008-04-08, 03:25:00,VALID,914.154,VALID,0,VALID,100,VALID,-0.0169808,VALID,19.7185,VALID,51,VALID,2.03144,
2008-04-08, 03:26:00,VALID,914.154,VALID,0,VALID,100,VALID,-0.0169808,VALID,19.7445,VALID,64,VALID,2.07759,
2008-04-08, 03:27:00,VALID,914.17,VALID,0,VALID,100,VALID,0,VALID,19.7672,VALID,50,VALID,1.72904,
2008-04-08, 03:28:00,VALID,914.178,VALID,0,VALID,100,VALID,0,VALID,19.7632,VALID,64,VALID,1.33498,
2008-04-08, 03:29:00,VALID,914.173,VALID,0,VALID,100,VALID,0.0169808,VALID,19.757,VALID,69,VALID,1.86156,
2008-04-08, 03:30:00,VALID,914.177,VALID,0,VALID,100,VALID,0.0169808,VALID,19.76,VALID,71,VALID,1.59508,
2008-04-08, 03:31:00,VALID,914.169,VALID,0,VALID,100,VALID,0,VALID,19.7867,VALID,43,VALID,1.38377,
2008-04-08, 03:32:00,VALID,914.159,VALID,0,VALID,100,VALID,0.0169808,VALID,19.7662,VALID,34,VALID,1.01119,
2008-04-08, 03:33:00,VALID,914.158,VALID,0,VALID,100,VALID,0.0169808,VALID,19.7535,VALID,34,VALID,0.708079,
2008-04-08, 03:34:00,VALID,914.175,VALID,0,VALID,100,VALID,0.0169808,VALID,19.728,VALID,37,VALID,0.416481,
2008-04-08, 03:35:00,VALID,914.182,VALID,0,VALID,100,VALID,0.0169808,VALID,19.6853,VALID,62,VALID,1.02734,
2008-04-08, 03:36:00,VALID,914.165,VALID,0,VALID,100,VALID,0,VALID,19.6661,VALID,58,VALID,0.785547,
2008-04-08, 03:37:00,VALID,914.175,VALID,0,VALID,100,VALID,-0.0339617,VALID,19.6304,VALID,53,VALID,0.841797,
2008-04-08, 03:38:00,VALID,914.173,VALID,0,VALID,100,VALID,0.0339617,VALID,19.6312,VALID,50,VALID,0.901456,
2008-04-08, 03:39:00,VALID,914.167,VALID,0,VALID,100,VALID,0,VALID,19.6239,VALID,26,VALID,1.20762,
2008-04-08, 03:40:00,VALID,914.161,VALID,0,VALID,100,VALID,0,VALID,19.6075,VALID,28,VALID,1.48214,
2008-04-08, 03:41:00,VALID,914.15,VALID,0,VALID,100,VALID,0,VALID,19.6177,VALID,31,VALID,1.44627,
2008-04-08, 03:42:00,VALID,914.15,VALID,0,VALID,100,VALID,-0.0339617,VALID,19.6307,VALID,21,VALID,1.36793,
2008-04-08, 03:43:00,VALID,914.153,VALID,0,VALID,100,VALID,0,VALID,19.6237,VALID,10,VALID,1.16921,